DateTimeUTC,F1_A11,F1_S11,BsB_S11,BsG_S11,BsR_S11,BbsB_S11,BbsG_S11,BbsR_S11,BaB_A11,BaG_A11,BaR_A11,Tu_S11,T_S11,Uu_S11,U_S11,P_S11,T1_A11
2021-04-13T12:00:00Z,00000200,20000000,,,,,,,0000.04,-000.75,0000.39,18.3,25.3,02.6,01.7,0659.3,31.1
2021-04-13T12:01:00Z,00000200,20000000,,,,,,,0000.10,0000.34,0000.13,18.3,25.3,02.6,01.7,0659.3,31.1
2021-04-13T12:02:00Z,00000200,20000000,,,,,,,-000.04,0000.44,-000.13,18.3,25.3,02.6,01.7,0659.3,31.1
2021-04-13T12:03:00Z,00000200,60000000,,,,,,,0000.22,0000.06,0000.36,18.3,25.3,02.6,01.7,0659.3,31.1
2021-04-13T12:04:00Z,00000200,40000000,0000.29,0000.02,-000.22,0000.20,-000.04,0000.09,0000.30,-000.05,0000.05,18.4,25.1,02.7,01.8,0660.1,31.1
2021-04-13T12:05:00Z,00000200,00000000,-000.12,-000.21,-000.29,-000.00,0000.05,0000.25,-000.07,0000.11,-000.07,18.4,25.1,02.7,01.8,0660.2,31.1
2021-04-13T12:06:00Z,00000200,00000000,0000.50,-000.01,0000.11,0000.28,-000.01,0000.11,0000.33,0000.31,0000.10,18.4,25.1,02.7,01.8,0660.2,31.1
2021-04-13T12:07:00Z,00000200,00000000,-000.07,-000.31,-000.14,0000.46,0000.21,-000.01,0000.31,0000.34,0000.59,18.4,25.1,02.9,02.0,0660.2,31.1
2021-04-13T12:08:00Z,00000200,00000000,-000.57,-000.21,-000.11,0000.19,-000.01,0000.10,0000.19,0000.14,-000.00,18.4,25.1,03.0,02.0,0660.1,31.1
2021-04-13T12:09:00Z,00000200,00000000,-000.11,0000.02,0000.09,0000.02,0000.02,0000.28,0000.34,0000.78,0000.23,18.5,25.1,03.0,02.0,0660.1,31.1
2021-04-13T12:10:00Z,00000200,00000000,-000.65,-000.01,0000.02,0000.33,0000.00,-000.05,0000.67,-000.02,0000.58,18.5,25.1,03.1,02.1,0660.0,31.1
2021-04-13T12:11:00Z,00000200,00000000,-000.08,0000.12,-000.31,0000.36,0000.11,-000.01,-000.33,-000.01,-000.32,18.5,25.1,03.1,02.1,0660.1,31.1
2021-04-13T12:12:00Z,00000200,00000000,0000.18,0000.08,0000.07,0000.60,0000.07,0000.01,-000.27,-000.27,-000.16,18.5,25.1,03.1,02.1,0660.1,31.1
2021-04-13T12:13:00Z,00000200,00000000,0000.22,-000.20,-000.01,-000.20,0000.13,0000.21,-000.25,0000.11,-000.28,18.5,25.1,03.0,02.0,0660.0,31.1
2021-04-13T12:14:00Z,00000200,00010000,0000.64,-000.12,-000.14,0000.73,0000.12,0000.19,0000.15,-000.19,-000.15,18.5,25.1,02.9,01.9,0660.0,31.1
2021-04-13T12:15:00Z,00000200,00000000,-000.31,-000.22,0000.01,0000.16,-000.05,0000.22,0000.42,0000.26,0000.07,18.5,25.1,03.0,02.0,0660.1,31.1
2021-04-13T12:16:00Z,00000200,00000000,-000.25,-000.04,-000.32,-000.15,-000.16,-000.18,-000.14,-000.16,0000.41,18.5,25.1,03.0,02.0,0660.0,31.1
2021-04-13T12:17:00Z,00000200,00000000,0000.43,0000.05,-000.34,-000.20,0000.02,-000.23,0000.33,0000.26,0000.03,18.6,25.1,03.0,02.0,0660.0,31.1
2021-04-13T12:18:00Z,00000200,00000000,0000.73,-000.11,-000.00,-000.07,-000.25,0000.10,-000.24,0000.24,-000.01,18.6,25.1,03.0,02.0,0660.1,31.1
2021-04-13T12:19:00Z,00000200,00000000,-000.22,-000.17,-000.13,0000.42,-000.03,0000.04,0000.11,-000.29,-000.02,18.6,25.1,03.0,02.0,0660.1,31.1
2021-04-13T12:20:00Z,00000200,00000000,-000.31,-000.18,-000.21,0000.31,0000.09,-000.05,-000.22,0000.00,-000.16,18.6,25.2,03.0,02.0,0660.0,31.1
2021-04-13T12:21:00Z,00000200,00000000,-000.68,-000.02,0000.10,0000.18,0000.04,0000.33,-000.11,-000.07,0000.33,18.6,25.2,02.9,01.9,0660.1,31.1
2021-04-13T12:22:00Z,00000200,00000000,0000.68,-000.19,-000.29,0000.44,-000.18,0000.07,0000.30,0000.37,0000.13,18.6,25.2,03.0,02.0,0660.1,31.1
2021-04-13T12:23:00Z,00000200,00000000,-000.03,-000.12,0000.06,-000.13,-000.13,-000.12,0000.39,0000.19,0000.13,18.6,25.2,03.1,02.1,0660.0,31.1
2021-04-13T12:24:00Z,00000200,00000000,-000.00,-000.13,0000.09,0000.42,0000.17,-000.06,-000.35,0000.01,-000.22,18.6,25.2,03.0,02.0,0660.0,31.1
2021-04-13T12:25:00Z,00000200,00000000,-000.33,-000.19,0000.24,0000.23,-000.00,0000.39,0000.10,-000.34,-000.10,18.6,25.2,02.9,02.0,0660.0,31.1
2021-04-13T12:26:00Z,00000200,00000000,-000.15,-000.34,-000.08,0000.13,-000.13,0000.13,-000.21,0000.10,-000.35,18.7,25.2,02.9,02.0,0660.0,31.1
2021-04-13T12:27:00Z,00000200,00000000,-000.53,-000.11,-000.04,-000.02,0000.13,0000.03,0000.02,-000.41,0000.00,18.7,25.2,03.0,02.0,0660.0,31.1
2021-04-13T12:28:00Z,00000200,00000000,0000.13,-000.18,-000.03,0000.11,-000.14,0000.40,0000.44,0000.75,0000.54,18.7,25.2,03.0,02.0,0660.0,31.1
2021-04-13T12:29:00Z,00000200,00000000,-000.16,0000.03,-000.36,0000.15,0000.04,0000.13,0000.27,0000.46,0000.29,18.7,25.2,03.1,02.0,0660.0,31.1
2021-04-13T12:30:00Z,00000200,00000000,0000.61,-000.13,0000.05,0000.28,0000.04,-000.02,-000.18,-000.60,-000.03,18.6,25.2,03.1,02.1,0660.0,31.1
2021-04-13T12:31:00Z,00000200,00000000,0000.27,-000.25,0000.05,0000.30,-000.04,0000.05,0000.05,0000.09,-000.17,18.6,25.2,03.1,02.1,0659.9,31.1
2021-04-13T12:32:00Z,00000200,00000000,-000.15,-000.15,-000.11,0000.25,0000.07,-000.03,0000.02,-000.03,0000.10,18.6,25.2,03.1,02.1,0659.9,31.1
2021-04-13T12:33:00Z,00000200,00000000,0000.28,-000.05,-000.29,0000.20,0000.04,0000.07,-000.01,0000.40,-000.16,18.6,25.2,03.0,02.0,0659.9,31.1
2021-04-13T12:34:00Z,00000200,00000000,0000.22,-000.23,-000.30,0000.18,-000.22,-000.02,0000.43,-000.09,0000.40,18.6,25.2,03.1,02.1,0659.9,31.1
2021-04-13T12:35:00Z,00000200,00000000,0000.40,-000.02,0000.01,0000.15,0000.13,0000.02,0000.08,-000.01,-000.29,18.6,25.2,03.1,02.1,0659.8,31.1
2021-04-13T12:36:00Z,00000200,00000000,-000.25,-000.12,-000.14,0000.15,-000.00,0000.06,0000.44,0000.61,0000.16,18.6,25.2,03.2,02.1,0659.9,31.1
2021-04-13T12:37:00Z,00000200,00000000,0000.06,-000.22,-000.36,0000.08,0000.21,-000.08,-000.73,-000.86,0000.12,18.6,25.2,03.1,02.1,0659.8,31.1
2021-04-13T12:38:00Z,00000200,00000000,0000.13,-000.25,-000.21,-000.22,0000.03,-000.08,0000.08,0000.16,-000.21,18.6,25.2,03.2,02.1,0659.8,31.1
2021-04-13T12:39:00Z,00000200,00000000,-000.61,-000.36,0000.01,-000.02,0000.14,0000.14,0000.20,0000.19,0000.04,18.6,25.2,03.1,02.1,0659.8,31.1
2021-04-13T12:40:00Z,00000200,00000000,-000.24,-000.38,-000.41,0000.13,-000.07,0000.03,0000.07,0000.04,-000.03,18.6,25.2,03.1,02.1,0659.9,31.1
2021-04-13T12:41:00Z,00000200,00000000,-000.10,-000.05,-000.23,0000.16,-000.18,0000.14,0000.14,0000.44,0000.19,18.6,25.2,03.1,02.1,0659.8,31.1
2021-04-13T12:42:00Z,00000200,00000000,-000.26,-000.16,0000.46,0000.02,0000.22,0000.26,0000.30,-000.37,0000.29,18.6,25.1,03.1,02.1,0659.8,31.1
2021-04-13T12:43:00Z,00000200,00000000,-000.42,-000.08,0000.16,-000.36,-000.03,-000.03,-000.83,0000.12,-000.32,18.5,25.2,03.1,02.1,0659.8,31.1
2021-04-13T12:44:00Z,00000200,00000000,-000.26,-000.21,-000.22,0000.37,-000.08,0000.11,0000.17,-000.46,-000.21,18.5,25.1,03.0,02.0,0659.8,31.1
2021-04-13T12:45:00Z,00000200,00000000,-000.27,-000.16,0000.19,0000.30,-000.07,0000.07,-000.05,0000.24,-000.16,18.5,25.1,03.0,02.0,0659.8,31.1
2021-04-13T12:46:00Z,00000200,00000000,0000.28,-000.19,-000.36,0000.39,-000.12,-000.10,0000.28,0000.15,0000.27,18.5,25.1,03.0,02.0,0659.8,31.1
2021-04-13T12:47:00Z,00000200,00000000,0000.05,-000.07,0000.06,-000.29,-000.01,0000.11,-000.15,-000.06,0000.31,18.5,25.1,03.1,02.0,0659.8,31.1
2021-04-13T12:48:00Z,00000200,00000000,-000.07,0000.02,0000.01,0000.31,-000.01,0000.23,0000.31,0000.13,0000.20,18.5,25.2,03.1,02.1,0659.7,31.1
2021-04-13T12:49:00Z,00000200,00000000,0000.32,-000.34,-000.34,0000.12,0000.12,-000.17,0000.39,0000.52,0000.02,18.5,25.2,03.1,02.0,0659.7,31.1
2021-04-13T12:50:00Z,00000200,00000000,-000.21,-000.05,-000.12,0000.41,-000.06,0000.14,0000.08,-000.01,0000.28,18.6,25.2,03.1,02.1,0659.6,31.1
2021-04-13T12:51:00Z,00000200,00000000,-000.58,-000.27,-000.03,0000.35,-000.14,0000.22,0000.13,0000.39,0000.10,18.6,25.2,03.1,02.1,0659.5,31.1
2021-04-13T12:52:00Z,00000200,00000000,-000.05,0000.13,-000.24,0000.29,0000.11,0000.09,0000.16,-000.26,-000.07,18.6,25.2,03.1,02.1,0659.5,31.1
2021-04-13T12:53:00Z,00000200,00000000,0000.45,0000.00,-000.07,0000.02,0000.05,-000.01,-000.10,0000.30,-000.21,18.6,25.2,03.2,02.1,0659.6,31.1
2021-04-13T12:54:00Z,00000200,00000000,0000.38,-000.20,0000.20,-000.11,-000.02,0000.05,-000.06,-000.14,0000.13,18.7,25.2,03.1,02.1,0659.6,31.1
2021-04-13T12:55:00Z,00000200,00000000,-000.24,-000.06,0000.09,-000.15,0000.16,0000.07,-000.07,0000.07,0000.15,18.7,25.2,03.1,02.0,0659.4,31.1
2021-04-13T12:56:00Z,00000200,00000000,-000.43,-000.35,-000.07,0000.06,-000.07,0000.07,-000.16,-000.27,-000.08,18.7,25.2,03.1,02.1,0659.6,31.1
2021-04-13T12:57:00Z,00000200,40000000,,,,,,,0000.36,0000.13,-000.38,18.7,25.2,03.1,02.1,0659.5,31.1
2021-04-13T12:58:00Z,00000200,60000000,,,,,,,-000.43,-000.10,0000.34,18.5,25.3,02.9,01.9,0658.5,31.1
2021-04-13T12:59:00Z,00000200,20000000,,,,,,,0000.34,0000.09,0000.10,18.5,25.4,02.9,01.9,0658.4,31.1
